GW4718 Weather Reports


Display with metric or nautical units.
time (UTC)temp
F
wind
direction
speed
MPH
gust
MPH
rain 1hr
in
rain 24hr
in
rain mn
in
humidity
%
barometer
mb
20260506165030 66 177 13.0 16.0 0.00 0.00 0.00 76 1011.0
20260506164527 66 228 9.0 14.0 0.00 0.00 0.00 78 1011.1
20260506164024 66 229 9.0 10.0 0.00 0.00 0.00 79 1011.5
20260506163520 66 146 10.0 16.0 0.00 0.00 0.00 76 1011.1
20260506163016 66 184 5.0 13.0 0.00 0.00 0.00 76 1011.2
20260506162512 66 176 8.0 16.0 0.00 0.00 0.00 77 1011.1
20260506162003 66 163 7.0 11.0 0.00 0.00 0.00 78 1011.0
20260506161500 66 203 10.0 14.0 0.00 0.00 0.00 76 1011.0
20260506160952 65 223 4.0 11.0 0.00 0.00 0.00 79 1010.9
20260506160449 65 221 9.0 11.0 0.00 0.00 0.00 80 1011.0
20260506155946 65 197 5.0 11.0 0.00 0.00 0.00 79 1011.0
20260506155444 64 246 5.0 13.0 0.00 0.00 0.00 81 1011.1
20260506153548 64 193 6.0 10.0 0.00 0.00 0.00 81 1010.9
20260506153046 64 248 3.0 9.0 0.00 0.00 0.00 82 1010.8
20260506152542 64 193 4.0 9.0 0.00 0.00 0.00 81 1011.0
20260506152041 64 246 6.0 10.0 0.00 0.00 0.00 83 1011.0
20260506151538 63 222 5.0 10.0 0.00 0.00 0.00 84 1010.9
20260506151035 63 193 4.0 9.0 0.00 0.00 0.00 84 1010.8
20260506150531 63 229 4.0 11.0 0.00 0.00 0.00 84 1010.8
20260506150029 62 152 4.0 9.0 0.00 0.00 0.00 86 1011.0
20260506145525 62 193 9.0 11.0 0.00 0.00 0.00 85 1010.8
20260506145023 62 230 3.0 7.0 0.00 0.00 0.00 89 1011.0
20260506144519 61 258 4.0 9.0 0.00 0.00 0.00 89 1010.9
20260506144017 61 248 6.0 8.0 0.00 0.00 0.00 90 1011.1
20260506143514 60 238 6.0 8.0 0.00 0.00 0.00 92 1011.1
20260506143013 60 252 4.0 7.0 0.00 0.00 0.00 93 1011.2
20260506142510 60 246 5.0 8.0 0.00 0.00 0.00 93 1011.2
20260506142008 60 219 4.0 7.0 0.00 0.00 0.00 91 1010.8
20260506141506 60 227 4.0 7.0 0.00 0.00 0.00 93 1011.1
20260506141004 60 267 2.0 6.0 0.00 0.00 0.00 93 1010.9
20260506140501 58 218 4.0 6.0 0.00 0.00 0.00 92 1011.1
20260506135957 58 210 3.0 8.0 0.00 0.00 0.00 94 1011.1
20260506135454 58 250 6.0 7.0 0.00 0.00 0.00 95 1011.6
20260506134950 58 227 3.0 7.0 0.00 0.00 0.00 95 1011.6
20260506134447 58 212 3.0 8.0 0.00 0.00 0.00 95 1011.4
20260506133943 58 282 5.0 6.0 0.00 0.00 0.00 96 1011.6
20260506133441 58 238 4.0 8.0 0.00 0.00 0.00 95 1011.5
20260506132937 58 254 3.0 9.0 0.00 0.00 0.00 95 1011.2
20260506132434 58 216 6.0 8.0 0.00 0.00 0.00 95 1011.4
20260506131932 57 185 4.0 7.0 0.00 0.00 0.00 95 1011.4
20260506131428 57 171 4.0 6.0 0.00 0.00 0.00 95 1011.5
20260506130925 57 291 4.0 9.0 0.00 0.00 0.00 94 1011.6
20260506130422 57 230 4.0 7.0 0.00 0.00 0.00 94 1011.4
20260506125920 57 228 4.0 9.0 0.00 0.00 0.00 95 1011.6
20260506125418 57 255 4.0 9.0 0.00 0.00 0.00 94 1011.5
20260506124916 57 208 7.0 9.0 0.00 0.00 0.00 94 1011.4
20260506124413 56 251 5.0 10.0 0.00 0.00 0.00 94 1011.4
20260506123911 56 208 6.0 9.0 0.00 0.00 0.00 94 1011.4
20260506123409 56 226 5.0 10.0 0.00 0.00 0.00 94 1011.1
20260506122906 56 264 4.0 8.0 0.00 0.00 0.00 95 1011.4
20260506122402 56 260 7.0 9.0 0.00 0.00 0.00 94 1011.5
20260506121901 56 160 6.0 10.0 0.00 0.00 0.00 94 1011.6
20260506121357 56 267 4.0 7.0 0.00 0.00 0.00 94 1011.5
20260506120854 56 256 5.0 8.0 0.00 0.00 0.00 94 1011.5
20260506120352 56 206 5.0 7.0 0.00 0.00 0.00 94 1011.5
20260506115849 56 252 4.0 8.0 0.00 0.00 0.00 94 1011.7
20260506115347 56 184 6.0 8.0 0.00 0.00 0.00 94 1011.6
20260506114845 56 227 4.0 7.0 0.00 0.00 0.00 94 1011.7
20260506114342 56 217 6.0 9.0 0.00 0.00 0.00 94 1011.4
20260506113841 56 209 5.0 6.0 0.00 0.00 0.00 95 1011.4
20260506113338 56 229 2.0 6.0 0.00 0.00 0.00 95 1011.6
20260506112835 55 254 2.0 4.0 0.00 0.00 0.00 96 1011.5
20260506112332 55 224 2.0 4.0 0.00 0.00 0.00 96 1011.6
20260506111829 55 252 3.0 4.0 0.00 0.00 0.00 96 1011.8
20260506111328 55 241 2.0 4.0 0.00 0.00 0.00 95 1011.5
20260506110825 56 253 2.0 4.0 0.00 0.00 0.00 95 1011.5
20260506110321 56 249 3.0 4.0 0.00 0.00 0.00 94 1011.5
20260506105819 56 244 3.0 3.0 0.00 0.00 0.00 92 1011.7
20260506105315 56 275 2.0 3.0 0.00 0.00 0.00 92 1011.4
20260506104812 56 214 3.0 3.0 0.00 0.00 0.00 93 1011.6
20260506104310 56 241 2.0 3.0 0.00 0.00 0.00 92 1011.2
20260506103808 56 212 2.0 3.0 0.00 0.00 0.00 91 1011.4
20260506103305 56 239 1.0 3.0 0.00 0.00 0.00 89 1011.6
20260506102802 57 232 2.0 3.0 0.00 0.00 0.00 87 1011.5
20260506102300 58 157 4.0 8.0 0.00 0.00 0.00 83 1011.4
20260506101757 58 205 4.0 7.0 0.00 0.00 0.00 79 1011.6
20260506101253 59 231 2.0 4.0 0.00 0.00 0.00 78 1011.4
20260506100751 60 248 5.0 7.0 0.00 0.00 0.00 69 1011.4
20260506100249 60 175 4.0 4.0 0.00 0.00 0.00 68 1011.2
20260506095747 61 195 0.0 6.0 0.00 0.00 0.00 69 1011.1
20260506095244 60 249 2.0 3.0 0.00 0.00 0.00 67 1011.1
20260506094740 61 227 2.0 3.0 0.00 0.00 0.00 66 1011.0
20260506094239 61 148 2.0 4.0 0.00 0.00 0.00 69 1010.9
20260506093737 62 177 4.0 7.0 0.00 0.00 0.00 64 1011.1
20260506093234 62 247 5.0 7.0 0.00 0.00 0.00 60 1011.0
20260506092732 62 243 4.0 8.0 0.00 0.00 0.00 60 1011.0
20260506092229 62 206 6.0 8.0 0.00 0.00 0.00 60 1011.1
20260506091726 62 194 2.0 6.0 0.00 0.00 0.00 61 1011.0
20260506091224 62 219 3.0 4.0 0.00 0.00 0.00 61 1010.7
20260506090722 62 202 1.0 3.0 0.00 0.00 0.00 62 1010.9
20260506090218 61 216 3.0 4.0 0.00 0.00 0.00 61 1010.7
20260506085715 62 254 3.0 4.0 0.00 0.00 0.00 61 1010.8
20260506085211 62 222 2.0 4.0 0.00 0.00 0.00 60 1010.7
20260506084708 61 230 5.0 8.0 0.00 0.00 0.00 59 1010.9
20260506084159 62 164 4.0 7.0 0.00 0.00 0.00 61 1010.9
20260506083656 61 216 2.0 7.0 0.00 0.00 0.00 63 1010.9
20260506083154 61 253 2.0 4.0 0.00 0.00 0.00 61 1011.0
20260506082651 61 258 3.0 6.0 0.00 0.00 0.00 60 1011.1
20260506082151 62 194 4.0 7.0 0.00 0.00 0.00 58 1011.2
20260506081649 62 223 4.0 9.0 0.00 0.00 0.00 58 1011.2
20260506081147 61 268 4.0 8.0 0.00 0.00 0.00 59 1011.1
20260506080644 60 199 4.0 7.0 0.00 0.00 0.00 62 1011.2
20260506080141 60 233 3.0 4.0 0.00 0.00 0.00 64 1011.5
20260506073125 57 259 0.0 3.0 0.00 0.00 0.00 67 1011.5
20260506072621 57 180 1.0 2.0 0.00 0.00 0.00 67 1011.5
20260506072119 58 230 0.0 1.0 0.00 0.00 0.00 65 1011.6
20260506071617 58 246 0.0 1.0 0.00 0.00 0.00 65 1011.5
20260506071114 57 240 0.0 1.0 0.00 0.00 0.00 66 1011.5
20260506070611 58 172 1.0 2.0 0.00 0.00 0.00 65 1011.6
20260506070108 60 265 1.0 2.0 0.00 0.00 0.00 61 1011.4
20260506062045 60 228 1.0 2.0 0.00 0.00 0.00 60 1011.9
20260506061541 61 179 1.0 4.0 0.00 0.00 0.00 60 1011.7
20260506061038 61 185 0.0 2.0 0.00 0.00 0.00 58 1011.9
20260506060537 61 204 2.0 3.0 0.00 0.00 0.00 57 1012.2
20260506051006 62 260 3.0 3.0 0.00 0.00 0.00 56 1012.9
20260506050503 62 247 2.0 3.0 0.00 0.00 0.00 56 1012.7
20260506044954 62 242 3.0 6.0 0.00 0.00 0.00 54 1013.2
20260506044452 62 214 2.0 2.0 0.00 0.00 0.00 56 1013.3
20260506043948 61 273 5.0 7.0 0.00 0.00 0.00 57 1013.2
20260506043445 60 220 0.0 4.0 0.00 0.00 0.00 60 1013.2
20260506042943 59 242 1.0 3.0 0.00 0.00 0.00 61 1013.3
20260506042443 59 197 2.0 2.0 0.00 0.00 0.00 64 1013.0
20260506041940 58 241 0.0 3.0 0.00 0.00 0.00 62 1013.3
20260506041438 57 67 1.0 3.0 0.00 0.00 0.00 63 1013.0
20260506040935 57 114 0.0 1.0 0.00 0.00 0.00 64 1012.8
20260506040432 58 297 0.0 0.0 0.00 0.00 0.00 63 1012.9
20260506035928 59 231 0.0 2.0 0.00 0.00 0.00 62 1013.0
20260506035426 59 179 3.0 3.0 0.00 0.00 0.00 60 1013.2
20260506034922 58 231 1.0 2.0 0.00 0.00 0.00 62 1012.9
20260506034420 59 159 0.0 0.0 0.00 0.00 0.00 62 1013.2
20260506033917 57 238 0.0 0.0 0.00 0.00 0.00 63 1012.9
20260506033414 57 96 1.0 2.0 0.00 0.00 0.00 64 1013.0
20260506032911 59 257 0.0 1.0 0.00 0.00 0.00 62 1013.0
20260506032408 57 257 0.0 1.0 0.00 0.00 0.00 64 1013.2
20260506031904 57 78 0.0 0.0 0.00 0.00 0.00 64 1013.4
20260506031401 57 54 0.0 1.0 0.00 0.00 0.00 64 1013.5
20260506030859 58 40 0.0 1.0 0.00 0.00 0.00 64 1013.2
20260506030357 58 244 0.0 1.0 0.00 0.00 0.00 62 1013.4
20260506025854 59 187 0.0 1.0 0.00 0.00 0.00 62 1013.4
20260506025350 59 239 0.0 0.0 0.00 0.00 0.00 61 1013.4
20260506024847 59 274 0.0 1.0 0.00 0.00 0.00 59 1013.7
20260506024344 59 70 0.0 1.0 0.00 0.00 0.00 59 1013.6
20260506023840 59 90 0.0 0.0 0.00 0.00 0.00 60 1013.6
20260506023337 60 145 0.0 1.0 0.00 0.00 0.00 59 1013.5
20260506022834 60 353 1.0 1.0 0.00 0.00 0.00 55 1013.6
20260506022332 60 189 0.0 1.0 0.00 0.00 0.00 58 1013.6
20260506021830 61 204 0.0 1.0 0.00 0.00 0.00 55 1013.6
20260506021326 61 245 0.0 1.0 0.00 0.00 0.00 55 1013.7
20260506020823 62 160 2.0 4.0 0.00 0.00 0.00 54 1013.6
20260506020321 62 163 0.0 1.0 0.00 0.00 0.00 55 1013.4
20260506015818 62 137 0.0 2.0 0.00 0.00 0.00 50 1013.5
20260506015316 63 180 0.0 2.0 0.00 0.00 0.00 50 1013.4
20260506014812 64 161 0.0 3.0 0.00 0.00 0.00 50 1013.6
20260506014309 64 265 2.0 3.0 0.00 0.00 0.00 48 1013.4
20260506013806 64 103 3.0 3.0 0.00 0.00 0.00 49 1012.9
20260506013303 64 275 2.0 3.0 0.00 0.00 0.00 49 1013.2
20260506012759 62 278 1.0 2.0 0.00 0.00 0.00 53 1013.2
20260506012256 62 142 0.0 1.0 0.00 0.00 0.00 55 1013.0
20260506011754 63 109 0.0 0.0 0.00 0.00 0.00 54 1013.0
20260506011250 63 281 0.0 0.0 0.00 0.00 0.00 51 1013.0
20260506010748 63 235 0.0 0.0 0.00 0.00 0.00 52 1013.3
20260506010245 63 283 0.0 1.0 0.00 0.00 0.00 51 1013.2
20260506005743 63 138 0.0 1.0 0.00 0.00 0.00 52 1012.8
20260506005239 63 110 0.0 1.0 0.00 0.00 0.00 51 1012.8
20260506004735 63 282 0.0 2.0 0.00 0.00 0.00 55 1012.9
20260506004233 64 114 0.0 1.0 0.00 0.00 0.00 49 1012.7
20260506003728 64 127 0.0 1.0 0.00 0.00 0.00 51 1012.8
20260506003225 65 179 0.0 2.0 0.00 0.00 0.00 49 1012.7
20260506002721 64 247 0.0 1.0 0.00 0.00 0.00 50 1012.7
20260506002218 64 121 0.0 1.0 0.00 0.00 0.00 47 1012.9
20260506001713 64 147 0.0 0.0 0.00 0.00 0.00 49 1012.8
20260506001211 65 142 0.0 1.0 0.00 0.00 0.00 48 1012.8
20260506000708 64 234 0.0 3.0 0.00 0.00 0.00 49 1012.5
20260506000206 65 289 0.0 2.0 0.00 0.00 0.00 45 1012.8
20260505235703 66 239 1.0 2.0 0.00 0.00 0.00 41 1012.6
20260505235200 66 207 1.0 2.0 0.00 0.00 0.00 45 1012.6
20260505234657 67 156 1.0 2.0 0.00 0.00 0.00 41 1012.2
20260505234154 68 152 0.0 2.0 0.00 0.00 0.00 42 1012.2
20260505233651 68 125 0.0 1.0 0.00 0.00 0.00 41 1012.1
20260505233149 70 239 0.0 2.0 0.00 0.00 0.00 35 1012.2
20260505232646 71 223 2.0 4.0 0.00 0.00 0.00 32 1012.3
20260505232143 71 181 4.0 7.0 0.00 0.00 0.00 29 1012.2
20260505231640 72 207 5.0 10.0 0.00 0.00 0.00 30 1012.0
20260505231139 74 188 5.0 7.0 0.00 0.00 0.00 30 1012.4
20260505230637 74 130 4.0 4.0 0.00 0.00 0.00 30 1012.1
20260505230133 74 205 8.0 11.0 0.00 0.00 0.00 28 1012.1
20260505225629 75 215 4.0 10.0 0.00 0.00 0.00 30 1012.2
20260505225125 74 232 4.0 13.0 0.00 0.00 0.00 31 1012.3
20260505224622 75 280 6.0 9.0 0.00 0.00 0.00 30 1012.5
20260505224120 74 219 3.0 7.0 0.00 0.00 0.00 32 1012.5
20260505223617 74 214 3.0 11.0 0.00 0.00 0.00 33 1012.7
20260505223113 74 219 4.0 7.0 0.00 0.00 0.00 34 1012.8
20260505222609 73 249 4.0 10.0 0.00 0.00 0.00 33 1012.7
20260505222106 73 246 8.0 13.0 0.00 0.00 0.00 31 1012.6
20260505221603 74 176 7.0 11.0 0.00 0.00 0.00 31 1012.6
20260505221059 75 248 7.0 10.0 0.00 0.00 0.00 32 1012.6
20260505220556 75 273 7.0 16.0 0.00 0.00 0.00 31 1012.5
20260505220054 75 257 5.0 10.0 0.00 0.00 0.00 32 1012.6
20260505215552 73 209 7.0 11.0 0.00 0.00 0.00 30 1012.7
20260505215049 75 223 9.0 15.0 0.00 0.00 0.00 30 1012.7
20260505214548 76 241 12.0 19.0 0.00 0.00 0.00 28 1012.6
20260505214044 76 214 6.0 14.0 0.00 0.00 0.00 30 1012.6
20260505213542 76 354 4.0 10.0 0.00 0.00 0.00 30 1012.6
20260505213038 76 205 10.0 15.0 0.00 0.00 0.00 26 1012.8
20260505212535 76 243 3.0 13.0 0.00 0.00 0.00 28 1012.6
20260505212032 76 228 11.0 16.0 0.00 0.00 0.00 28 1012.4
20260505211529 76 220 11.0 17.0 0.00 0.00 0.00 26 1012.6
20260505211025 76 200 7.0 9.0 0.00 0.00 0.00 27 1012.4
20260505210522 76 192 9.0 13.0 0.00 0.00 0.00 26 1012.3
20260505210020 76 212 12.0 18.0 0.00 0.00 0.00 26 1012.5
20260505205518 76 250 5.0 21.0 0.00 0.00 0.00 24 1012.3
20260505205014 76 224 5.0 16.0 0.00 0.00 0.00 25 1012.5
20260505204512 76 218 6.0 15.0 0.00 0.00 0.00 26 1012.4
20260505204009 77 203 7.0 14.0 0.00 0.00 0.00 25 1012.3
20260505203506 77 236 7.0 15.0 0.00 0.00 0.00 28 1012.3
20260505203003 77 237 8.0 15.0 0.00 0.00 0.00 26 1012.4
20260505202459 77 194 7.0 22.0 0.00 0.00 0.00 27 1012.3
20260505201954 77 223 4.0 14.0 0.00 0.00 0.00 24 1012.3
20260505201452 76 235 6.0 15.0 0.00 0.00 0.00 26 1012.5
20260505200949 76 225 6.0 13.0 0.00 0.00 0.00 27 1012.5
20260505200447 76 208 4.0 16.0 0.00 0.00 0.00 30 1012.5
20260505195943 75 196 9.0 16.0 0.00 0.00 0.00 27 1012.6
20260505195440 76 168 9.0 16.0 0.00 0.00 0.00 27 1012.4
20260505194937 76 293 9.0 14.0 0.00 0.00 0.00 28 1012.4
20260505194434 77 233 4.0 7.0 0.00 0.00 0.00 33 1012.5
20260505193934 76 279 7.0 16.0 0.00 0.00 0.00 27 1012.6
20260505193432 77 165 10.0 14.0 0.00 0.00 0.00 26 1012.7
20260505192930 77 142 5.0 18.0 0.00 0.00 0.00 27 1012.6
20260505192428 76 228 11.0 17.0 0.00 0.00 0.00 25 1012.8
20260505191925 77 192 9.0 15.0 0.00 0.00 0.00 26 1012.8
20260505191424 77 244 6.0 16.0 0.00 0.00 0.00 27 1012.7
20260505190920 77 200 12.0 17.0 0.00 0.00 0.00 30 1012.7
20260505190416 76 209 11.0 21.0 0.00 0.00 0.00 29 1012.9
20260505185911 76 226 6.0 19.0 0.00 0.00 0.00 30 1012.9
20260505185409 77 241 6.0 11.0 0.00 0.00 0.00 31 1012.7
20260505184904 76 263 6.0 15.0 0.00 0.00 0.00 31 1012.8
20260505184401 77 290 6.0 11.0 0.00 0.00 0.00 34 1012.9
20260505183858 77 179 6.0 17.0 0.00 0.00 0.00 32 1012.8
20260505183355 77 189 10.0 13.0 0.00 0.00 0.00 32 1013.2
20260505182852 76 244 5.0 9.0 0.00 0.00 0.00 34 1013.2
20260505182349 77 199 8.0 11.0 0.00 0.00 0.00 33 1012.9
20260505181845 77 225 6.0 18.0 0.00 0.00 0.00 33 1013.3
20260505181343 77 258 6.0 11.0 0.00 0.00 0.00 35 1013.4
20260505180839 77 220 8.0 15.0 0.00 0.00 0.00 32 1013.4
20260505180336 77 262 6.0 8.0 0.00 0.00 0.00 33 1013.2
20260505175832 77 202 6.0 9.0 0.00 0.00 0.00 31 1013.5
20260505175329 77 261 4.0 9.0 0.00 0.00 0.00 32 1013.6
20260505174825 76 150 3.0 11.0 0.00 0.00 0.00 31 1013.7
20260505174323 76 213 9.0 16.0 0.00 0.00 0.00 32 1013.4
20260505173819 77 336 6.0 13.0 0.00 0.00 0.00 32 1013.8
20260505173315 76 257 4.0 7.0 0.00 0.00 0.00 37 1013.7
20260505172813 76 218 8.0 11.0 0.00 0.00 0.00 32 1013.7
20260505172310 77 184 8.0 13.0 0.00 0.00 0.00 33 1013.8
20260505171804 76 231 4.0 8.0 0.00 0.00 0.00 34 1014.1
20260505171301 76 225 5.0 13.0 0.00 0.00 0.00 33 1014.1
20260505170758 76 263 6.0 13.0 0.00 0.00 0.00 36 1014.1
20260505170255 75 217 9.0 16.0 0.00 0.00 0.00 34 1014.3
20260505165750 75 206 5.0 11.0 0.00 0.00 0.00 33 1014.2